Regional Weather Roundup
Issued by NWS Newport/Morehead, NC

Home | Current Version | Previous Version | Text Only | Print | Product List | Glossary On
Versions: 1 2 3 4 5 6 7 8 9 10 11 12 13 14 15 16 17 18 19 20 21 22 23 24 25 26 27 28 29 30 31 32 33 34 35 36 37 38 39 40 41 42 43 44 45 46 47 48 49 50
000
ASUS42 KMHX 161622
RWRMHX
WEATHER ROUNDUP FOR EASTERN NORTH CAROLINA
NATIONAL WEATHER SERVICE NEWPORT/MOREHEAD CITY NC
1200 PM EDT WED APR 16 2014

NOTE: "FAIR" INDICATES FEW OR NO CLOUDS BELOW 12,000 FEET
WITH NO SIGNIFICANT WEATHER AND/OR OBSTRUCTIONS TO VISIBILITY

NCZ015>017-031-032-045>047-102-103-161700-
NORTH COAST

CITY           SKY/WX    TMP DP  RH WIND       PRES   REMARKS
EDENTON        SUNNY     46  27  47 NE13G20   30.38S
ELIZABETH CITY SUNNY     47  30  51 N15G24    30.38R
KITTY HAWK     SUNNY     43  29  56 N9G22     30.35S
MANTEO         SUNNY     44  28  55 NE24G35   30.36S

$$

NCZ045>047-081-094-103-104-161700-
CENTRAL COAST

CITY           SKY/WX    TMP DP  RH WIND       PRES   REMARKS
FRISCO         PTSUNNY   45  32  60 NE20G32   30.33R
SWANQUARTER      N/A     46 N/A N/A NE20      30.33S

$$

NCZ095-097-098-100-101-161700-
SOUTHERN COAST

CITY           SKY/WX    TMP DP  RH WIND       PRES   REMARKS
BEAUFORT       MOSUNNY   48  31  51 N21G30    30.33S
CEDAR ISLAND     N/A     46 N/A N/A NW17G31   30.39R
JACKSONVILLE   SUNNY     48  26  42 N16       30.35S
NEWPORT          N/A    N/A N/A N/A N10G18      N/A
PINEY ISLAND   MOSUNNY   48  32  53 N18G26    30.34S
WILMINGTON     SUNNY     50  27  40 NE10G26   30.35R


$$

NCZ011>013-027>030-043-044-078>080-089-090>093-098-161700-
COASTAL PLAIN

CITY           SKY/WX    TMP DP  RH WIND       PRES   REMARKS
AHOSKIE        SUNNY     44  24  46 N9G17     30.41S
CLINTON        SUNNY     47  27  46 N12G17    30.38F
ELIZABETHTOWN  SUNNY     47  25  42 N6        30.36F
GOLDSBORO      SUNNY     45  23  41 N15G23    30.37S
GREENVILLE     SUNNY     46  27  46 N12G21    30.39S
HAVELOCK       MOSUNNY   49  29  46 N20G29    30.36R
KENANSVILLE    SUNNY     45  25  44 N12G21    30.38S
KINSTON        SUNNY     46  27  46 N15G21    30.39S
NEW BERN       SUNNY     49  29  46 N14G23    30.37S
RICHLANDS      SUNNY     46  25  42 N17       30.36F
ROANOKE RAPIDS NOT AVBL
ROCKY MOUNT      N/A    N/A N/A N/A MISG      30.41R
WASHINGTON     SUNNY     47  26  44 N13G21    30.38S
WHITEVILLE     SUNNY     47  27  44 N7G20     30.35S

$$

AMZ130-135-150-152-154-156-158-170-250-252-270-ANZ085-086-088-633-658-670-161700-
MARINE OBSERVATIONS

STATION/POSITION TIME  TEMP    WIND        PRES    WAVE   SWELL
                       AIR SEA DIR/SP/G            HT/PER HT/PER
                 (UTC) (F)     (DEG/KT/KT) (MB)    (FT/S) (FT/S)
CHESAPEAKE LIGHT 1600   39      10/ 24/ 27 1029.1
BUOY 44014       1600   42 62   10/ 27/ 33 1027.3   12/ 8
DUCK             1600   40 48   10/ 23/ 30 1027.1
2E DUCK          1600      47                N/A     8/ 7   2/11
OREGON INLET     1600   42 54  360/ 21/ 27 1027.7
BUOY 44095       1600      61                N/A    11/ 9   2/11
HATTERAS CG      1600   45 59   20/ 16/ 29 1027.3
DIAMOND BUOY     NOT AVBL
CAPE LOOKOUT     1600   46     360/ 19/ 26 1026.8
BEAUFORT LAB     1600   45 62   20/ 15/ 27 1026.6
30 SE NEW RIVER  1600   45 65   30/ 23/ 27 1026.8    7/ 5   2/ 9
5 SE WRIGHTSVILL 1600   46 60   40/ 19/ 23 1027.3
FRYING PAN BUOY  1600   46 65   40/ 23/ 27 1026.0    9/ 7
BUOY 41001       NOT AVBL
BUOY 41002       NOT AVBL
BUOY 41004       NOT AVBL

$$



USA.gov is the U.S. government's official web portal to all federal, state and local government web resources and services.